GW0571 Weather Reports


Display with metric or nautical units.
time (UTC)temp
F
wind
direction
speed
MPH
gust
MPH
rain 1hr
in
rain 24hr
in
rain mn
in
humidity
%
barometer
mb
20260901063732 64 230 0.0 0.0 0.00 0.00 0.00 96 1016.2
20260901063227 64 230 0.0 0.0 0.00 0.00 0.00 96 1016.4
20260901062723 64 230 0.0 0.0 0.00 0.00 0.00 96 1016.3
20260901062219 64 230 0.0 0.0 0.00 0.00 0.00 96 1016.3
20260901061715 64 230 0.0 0.0 0.00 0.00 0.00 96 1016.5
20260901061214 64 230 0.0 0.0 0.00 0.00 0.00 96 1016.5
20260901060709 63 230 0.0 0.0 0.00 0.00 0.00 96 1016.5
20260901060205 64 230 0.0 1.0 0.00 0.00 0.00 96 1016.6
20260901055700 63 89 0.0 0.0 0.00 0.00 0.00 96 1016.7
20260901055157 63 89 0.0 0.0 0.00 0.00 0.00 96 1016.8
20260901054654 63 89 0.0 0.0 0.00 0.00 0.00 96 1016.9
20260901054149 63 89 0.0 0.0 0.00 0.00 0.00 96 1016.7
20260901053645 63 142 0.0 1.0 0.00 0.00 0.00 96 1016.8
20260901053141 63 89 0.0 1.0 0.00 0.00 0.00 96 1017.2
20260901052636 63 66 0.0 0.0 0.00 0.00 0.00 96 1017.2
20260901052131 63 129 0.0 0.0 0.00 0.00 0.00 96 1017.3
20260901051631 63 129 0.0 0.0 0.00 0.00 0.00 96 1017.0
20260901051130 64 129 0.0 1.0 0.00 0.00 0.00 96 1016.9
20260901050625 64 135 0.0 1.0 0.00 0.00 0.00 96 1016.9
20260901050121 64 142 0.0 0.0 0.00 0.00 0.00 96 1017.0
20260901045615 64 142 0.0 0.0 0.00 0.00 0.00 96 1017.2
20260901045110 64 142 0.0 0.0 0.00 0.00 0.00 96 1017.2
20260901044606 64 142 0.0 0.0 0.00 0.00 0.00 96 1017.3
20260901044101 64 142 0.0 1.0 0.00 0.00 0.00 96 1017.0
20260901043557 64 142 0.0 0.0 0.00 0.00 0.00 96 1017.5
20260901043052 64 129 0.0 1.0 0.00 0.00 0.00 96 1017.2
20260901042551 64 135 0.0 1.0 0.00 0.00 0.00 96 1017.4
20260901042047 65 129 0.0 0.0 0.00 0.00 0.00 96 1017.2
20260901041542 65 142 0.0 1.0 0.00 0.00 0.00 96 1017.4
20260901041037 65 129 0.0 0.0 0.00 0.00 0.00 96 1017.2
20260901040536 65 129 0.0 1.0 0.00 0.00 0.00 96 1017.0
20260901040031 65 131 0.0 1.0 0.00 0.00 0.00 96 1017.2
20260901035528 65 124 0.0 1.0 0.00 0.41 0.41 96 1017.2
20260901035027 65 130 1.0 1.0 0.00 0.41 0.41 96 1017.2
20260901034522 65 130 0.0 1.0 0.00 0.41 0.41 96 1017.0
20260901034016 65 129 0.0 1.0 0.00 0.41 0.41 96 1017.2
20260901033515 65 129 0.0 0.0 0.00 0.41 0.41 96 1017.2
20260901033010 65 129 0.0 0.0 0.00 0.41 0.41 96 1017.3
20260901032504 65 129 0.0 0.0 0.00 0.41 0.41 96 1017.2
20260901032003 65 129 0.0 0.0 0.00 0.41 0.41 96 1017.0
20260901031459 65 129 0.0 1.0 0.00 0.41 0.41 96 1017.4
20260901030954 65 129 0.0 0.0 0.00 0.41 0.41 96 1017.3
20260901030449 65 129 0.0 1.0 0.00 0.41 0.41 96 1017.2
20260901025948 65 128 0.0 1.0 0.00 0.41 0.41 96 1017.2
20260901025444 65 129 0.0 1.0 0.00 0.41 0.41 96 1017.4
20260901024943 65 130 0.0 1.0 0.00 0.41 0.41 96 1017.3
20260901024438 65 124 0.0 1.0 0.00 0.41 0.41 96 1017.4
20260901023936 65 120 1.0 1.0 0.00 0.41 0.41 96 1017.4
20260901023431 65 75 0.0 1.0 0.00 0.41 0.41 96 1017.6
20260901022926 65 113 0.0 0.0 0.00 0.41 0.41 96 1017.5
20260901022422 65 113 0.0 1.0 0.00 0.41 0.41 96 1017.6
20260901021916 65 129 0.0 1.0 0.00 0.41 0.41 96 1017.6
20260901021412 65 126 0.0 2.0 0.00 0.41 0.41 96 1017.7
20260901020907 65 202 0.0 1.0 0.00 0.41 0.41 96 1017.7
20260901020403 65 315 0.0 0.0 0.00 0.41 0.41 96 1017.7
20260901015902 65 315 0.0 0.0 0.00 0.41 0.41 96 1017.6
20260901015358 66 315 0.0 1.0 0.00 0.41 0.41 96 1017.8
20260901014857 66 230 0.0 0.0 0.00 0.41 0.41 96 1017.9
20260901014354 66 269 0.0 1.0 0.00 0.41 0.41 96 1017.9
20260901013849 65 219 0.0 2.0 0.00 0.41 0.41 96 1017.6
20260901013345 65 144 0.0 2.0 0.00 0.41 0.41 96 1017.8
20260901012840 65 132 0.0 3.0 0.00 0.41 0.41 96 1017.9
20260901012335 65 217 0.0 2.0 0.00 0.41 0.41 96 1017.8
20260901011831 65 129 0.0 1.0 0.00 0.41 0.41 96 1017.7
20260901011326 65 147 1.0 2.0 0.02 0.41 0.41 96 1017.8
20260901010819 65 129 0.0 1.0 0.14 0.41 0.41 96 1017.5
20260901010314 65 105 0.0 2.0 0.12 0.41 0.41 96 1017.6
20260901005813 65 166 0.0 2.0 0.02 0.39 0.39 96 1017.6
20260901005308 65 89 0.0 1.0 0.02 0.39 0.39 96 1017.6
20260901004808 65 217 0.0 1.0 0.00 0.39 0.39 96 1017.6
20260901004303 65 223 0.0 1.0 0.02 0.39 0.39 96 1017.5
20260901003802 65 217 0.0 1.0 0.02 0.39 0.39 96 1017.6
20260901003257 65 144 2.0 3.0 0.00 0.38 0.38 96 1017.6
20260901002750 65 130 0.0 1.0 0.00 0.38 0.38 96 1017.4
20260901002246 65 115 0.0 2.0 0.00 0.38 0.38 96 1017.4
20260901001741 65 112 0.0 2.0 0.02 0.38 0.38 96 1017.5
20260901001236 65 269 0.0 0.0 0.02 0.38 0.38 96 1017.4
20260901000726 65 74 2.0 2.0 0.02 0.38 0.38 96 1017.3
20260901000221 65 142 0.0 1.0 0.02 0.37 0.37 96 1017.3
20260831235719 65 322 0.0 1.0 0.02 0.37 0.37 96 1017.3
20260831235216 65 173 0.0 1.0 0.02 0.37 0.37 96 1017.4
20260831234715 65 194 1.0 2.0 0.00 0.37 0.37 96 1017.3
20260831234210 65 147 0.0 2.0 0.00 0.37 0.37 96 1017.3
20260831233705 65 269 0.0 1.0 0.00 0.37 0.37 96 1017.6
20260831233201 66 202 0.0 2.0 0.00 0.37 0.37 96 1017.5
20260831232700 66 233 0.0 1.0 0.02 0.37 0.37 96 1017.6
20260831232157 66 184 0.0 2.0 0.02 0.37 0.37 96 1017.5
20260831231653 66 202 0.0 2.0 0.00 0.37 0.37 96 1017.5
20260831231149 66 118 0.0 2.0 0.00 0.37 0.37 96 1017.7
20260831230643 66 135 0.0 0.0 0.00 0.37 0.37 96 1017.9
20260831230139 66 206 1.0 2.0 0.00 0.37 0.37 96 1017.9
20260831225638 66 129 0.0 2.0 0.00 0.37 0.37 96 1017.8
20260831225133 66 230 0.0 2.0 0.00 0.37 0.37 96 1017.7
20260831224629 66 103 0.0 1.0 0.00 0.37 0.37 96 1018.0
20260831224124 66 89 0.0 1.0 0.00 0.37 0.37 96 1018.0
20260831223619 66 89 0.0 2.0 0.02 0.37 0.37 96 1018.2
20260831223115 66 117 0.0 2.0 0.02 0.37 0.37 96 1018.2
20260831222611 66 129 0.0 2.0 0.02 0.36 0.36 96 1018.1
20260831222112 66 116 0.0 2.0 0.02 0.36 0.36 96 1018.3
20260831221607 66 139 0.0 2.0 0.05 0.36 0.36 96 1018.4
20260831221102 66 150 1.0 2.0 0.02 0.35 0.35 96 1018.3
20260831220556 66 217 0.0 0.0 0.02 0.35 0.35 96 1018.3
20260831220052 66 230 0.0 1.0 0.05 0.35 0.35 96 1018.4
20260831215548 66 217 0.0 2.0 0.05 0.35 0.35 96 1018.5
20260831215043 66 269 0.0 1.0 0.00 0.34 0.34 96 1018.4
20260831214541 66 232 0.0 3.0 0.00 0.34 0.34 96 1018.4
20260831214036 66 108 0.0 2.0 0.00 0.34 0.34 96 1018.4
20260831213533 66 121 1.0 2.0 0.00 0.34 0.34 96 1018.3
20260831213028 66 135 1.0 2.0 0.00 0.34 0.34 96 1018.7
20260831212524 66 235 0.0 2.0 0.00 0.34 0.34 96 1018.5
20260831212019 66 260 0.0 4.0 0.00 0.34 0.34 96 1018.5
20260831211514 66 226 1.0 4.0 0.00 0.34 0.34 96 1018.5
20260831211013 65 190 0.0 2.0 0.00 0.34 0.34 96 1018.6
20260831210508 66 227 1.0 3.0 0.00 0.34 0.34 96 1018.4
20260831210004 66 142 0.0 2.0 0.12 0.34 0.34 96 1018.4
20260831205459 66 174 0.0 3.0 0.24 0.34 0.34 96 1018.5
20260831204955 65 144 2.0 2.0 0.14 0.32 0.32 96 1018.4
20260831204454 65 37 0.0 1.0 0.07 0.29 0.29 96 1018.5
20260831203953 65 169 1.0 3.0 0.07 0.29 0.29 96 1018.5
20260831203448 65 232 0.0 2.0 0.02 0.29 0.29 96 1018.5
20260831202946 65 234 0.0 2.0 0.00 0.28 0.28 96 1018.4
20260831202442 65 87 1.0 3.0 0.00 0.28 0.28 96 1018.4
20260831201941 65 211 1.0 3.0 0.00 0.28 0.28 96 1018.6
20260831201439 65 266 1.0 2.0 0.00 0.28 0.28 96 1018.4
20260831200935 65 130 0.0 2.0 0.00 0.28 0.28 96 1018.6
20260831200430 65 114 0.0 2.0 0.02 0.28 0.28 96 1018.8
20260831195930 65 127 0.0 2.0 0.05 0.28 0.28 96 1018.6
20260831195426 65 66 0.0 1.0 0.12 0.28 0.28 96 1018.8
20260831194921 65 217 0.0 0.0 0.19 0.27 0.27 96 1018.7
20260831194416 65 228 0.0 3.0 0.12 0.25 0.25 96 1018.6
20260831193916 65 135 0.0 2.0 0.09 0.24 0.24 96 1018.7
20260831193411 65 204 0.0 5.0 0.02 0.23 0.23 96 1018.7
20260831192906 65 241 1.0 3.0 0.00 0.22 0.22 96 1018.9
20260831192401 65 198 1.0 4.0 0.00 0.22 0.22 96 1018.8
20260831191856 65 144 2.0 4.0 0.00 0.22 0.22 96 1018.9
20260831191352 64 168 1.0 2.0 0.00 0.22 0.22 96 1018.8
20260831190848 64 157 1.0 3.0 0.00 0.22 0.22 96 1019.2
20260831190347 64 176 1.0 2.0 0.00 0.22 0.22 96 1019.2
20260831185842 64 247 4.0 5.0 0.00 0.22 0.22 96 1019.1
20260831185338 64 208 2.0 4.0 0.00 0.22 0.22 96 1019.2
20260831184837 64 217 0.0 5.0 0.00 0.22 0.22 96 1019.3
20260831184332 64 238 3.0 5.0 0.02 0.22 0.22 96 1019.4
20260831183827 64 149 0.0 3.0 0.00 0.22 0.22 96 1019.2
20260831183326 64 234 4.0 4.0 0.00 0.22 0.22 96 1019.5
20260831182826 64 191 1.0 3.0 0.00 0.22 0.22 96 1019.4
20260831182321 64 179 0.0 2.0 0.00 0.22 0.22 96 1019.4
20260831181816 64 132 0.0 6.0 0.00 0.22 0.22 96 1019.8
20260831181311 64 209 0.0 3.0 0.02 0.22 0.22 96 1019.6
20260831180807 64 215 1.0 4.0 0.02 0.22 0.22 96 1019.8
20260831180301 64 225 1.0 2.0 0.02 0.22 0.22 96 1019.8
20260831175800 64 218 0.0 4.0 0.05 0.22 0.22 96 1020.0
20260831175257 64 156 1.0 3.0 0.05 0.21 0.21 96 1020.0
20260831174752 64 137 2.0 3.0 0.05 0.21 0.21 96 1020.0
20260831174248 64 237 3.0 3.0 0.05 0.20 0.20 96 1020.2
20260831173747 63 180 2.0 3.0 0.09 0.20 0.20 96 1020.2
20260831173241 64 180 0.0 3.0 0.14 0.20 0.20 96 1020.2
20260831172736 63 192 2.0 3.0 0.09 0.18 0.18 96 1020.3
20260831172231 63 272 0.0 3.0 0.09 0.18 0.18 96 1020.4
20260831171726 63 116 0.0 3.0 0.09 0.17 0.17 96 1020.3
20260831171224 63 228 0.0 3.0 0.12 0.16 0.16 96 1020.3
20260831170720 64 163 2.0 3.0 0.07 0.15 0.15 96 1020.6
20260831170216 64 204 3.0 4.0 0.05 0.14 0.14 96 1020.5
20260831165712 64 143 1.0 4.0 0.05 0.14 0.14 96 1020.4
20260831165209 64 172 0.0 4.0 0.07 0.13 0.13 96 1020.5
20260831164704 64 185 1.0 4.0 0.05 0.13 0.13 96 1020.4
20260831164200 64 160 1.0 5.0 0.05 0.12 0.12 96 1020.6
20260831163655 65 230 1.0 3.0 0.05 0.12 0.12 96 1020.7
20260831163151 65 202 0.0 3.0 0.07 0.11 0.11 96 1020.5
20260831162649 65 119 0.0 3.0 0.17 0.11 0.11 95 1020.6
20260831162148 65 126 2.0 3.0 0.24 0.10 0.10 95 1020.6
20260831161643 65 128 0.0 2.0 0.35 0.07 0.07 94 1020.7
20260831161140 65 138 0.0 2.0 0.35 0.06 0.06 93 1020.8
20260831160639 66 141 0.0 1.0 0.14 0.02 0.02 92 1020.9
20260831160134 66 130 0.0 1.0 0.00 0.00 0.00 91 1020.8
20260831155634 65 309 0.0 1.0 0.00 0.00 0.00 90 1020.8
20260831155129 66 89 0.0 0.0 0.00 0.00 0.00 90 1020.8
20260831154625 66 89 0.0 2.0 0.00 0.00 0.00 89 1020.6
20260831154120 66 176 0.0 2.0 0.00 0.00 0.00 89 1020.6
20260831153619 66 145 1.0 2.0 0.00 0.00 0.00 88 1020.5
20260831153116 66 180 0.0 3.0 0.00 0.00 0.00 88 1020.7
20260831152611 66 124 1.0 3.0 0.00 0.00 0.00 88 1020.6
20260831152107 66 109 2.0 3.0 0.00 0.00 0.00 88 1020.5
20260831151606 66 224 1.0 6.0 0.00 0.00 0.00 88 1020.6
20260831151101 66 192 2.0 4.0 0.00 0.00 0.00 88 1020.5
20260831150556 66 176 0.0 3.0 0.00 0.00 0.00 87 1020.5
20260831150052 66 183 3.0 4.0 0.00 0.00 0.00 87 1020.5
20260831145546 66 260 0.0 5.0 0.00 0.00 0.00 88 1020.4
20260831145042 66 199 0.0 4.0 0.00 0.00 0.00 88 1020.5
20260831144537 66 193 0.0 3.0 0.00 0.00 0.00 88 1020.3
20260831144033 66 122 0.0 5.0 0.00 0.00 0.00 89 1020.4
20260831143527 66 260 1.0 3.0 0.00 0.00 0.00 89 1020.6
20260831143023 66 57 0.0 2.0 0.00 0.00 0.00 88 1020.5
20260831142520 66 142 2.0 6.0 0.00 0.00 0.00 88 1020.5
20260831142015 66 161 1.0 4.0 0.00 0.00 0.00 88 1020.4
20260831141513 66 266 0.0 4.0 0.00 0.00 0.00 88 1020.4
20260831141008 66 167 1.0 5.0 0.00 0.00 0.00 88 1020.4
20260831140503 66 167 2.0 3.0 0.00 0.00 0.00 88 1020.4
20260831140002 66 167 2.0 3.0 0.00 0.00 0.00 88 1020.4
20260831135500 66 192 2.0 4.0 0.00 0.00 0.00 88 1020.4
20260831134955 66 139 2.0 4.0 0.00 0.00 0.00 89 1020.4
20260831134452 66 164 0.0 4.0 0.00 0.00 0.00 89 1020.3
20260831133951 66 185 0.0 5.0 0.00 0.00 0.00 88 1020.5
20260831133446 66 149 3.0 4.0 0.00 0.00 0.00 88 1020.6
20260831132941 66 216 2.0 3.0 0.00 0.00 0.00 89 1020.6
20260831132437 66 184 3.0 3.0 0.00 0.00 0.00 89 1020.7
20260831131936 65 189 2.0 4.0 0.00 0.00 0.00 90 1020.8
20260831131431 65 160 0.0 3.0 0.00 0.00 0.00 91 1020.7
20260831130927 65 129 0.0 2.0 0.00 0.00 0.00 92 1020.7
20260831130422 64 151 3.0 5.0 0.00 0.00 0.00 92 1020.8
20260831125921 64 145 0.0 2.0 0.00 0.00 0.00 95 1020.7
20260831125416 64 116 3.0 4.0 0.00 0.00 0.00 96 1020.9
20260831124912 63 142 2.0 3.0 0.00 0.00 0.00 96 1020.7
20260831124408 63 142 2.0 3.0 0.00 0.00 0.00 96 1020.6
20260831123908 63 137 1.0 2.0 0.00 0.00 0.00 96 1020.8
20260831123407 62 109 1.0 2.0 0.00 0.00 0.00 96 1020.6
20260831122902 62 144 1.0 3.0 0.00 0.00 0.00 96 1020.6
20260831122357 62 147 1.0 2.0 0.00 0.00 0.00 96 1020.5
20260831121852 61 50 0.0 1.0 0.00 0.00 0.00 96 1020.6
20260831121348 61 76 0.0 1.0 0.00 0.00 0.00 96 1021.0
20260831120844 61 19 0.0 2.0 0.00 0.00 0.00 96 1020.8
20260831120338 61 224 0.0 2.0 0.00 0.00 0.00 96 1020.9
20260831115833 61 89 0.0 1.0 0.00 0.00 0.00 96 1020.9
20260831115330 61 119 0.0 1.0 0.00 0.00 0.00 96 1020.9
20260831114829 60 276 0.0 1.0 0.00 0.00 0.00 96 1020.9
20260831114327 60 6 0.0 1.0 0.00 0.00 0.00 96 1020.8
20260831113824 60 89 0.0 1.0 0.00 0.00 0.00 96 1020.9
20260831113323 60 94 1.0 2.0 0.00 0.00 0.00 96 1020.7
20260831112818 60 72 0.0 2.0 0.00 0.00 0.00 96 1020.5
20260831112313 60 142 0.0 1.0 0.00 0.00 0.00 96 1020.7
20260831111808 59 89 1.0 2.0 0.00 0.00 0.00 96 1020.6
20260831111305 59 96 1.0 2.0 0.00 0.00 0.00 96 1020.8
20260831110801 59 212 0.0 2.0 0.00 0.00 0.00 96 1020.8
20260831110255 59 224 0.0 2.0 0.00 0.00 0.00 96 1020.4
20260831105753 59 147 0.0 2.0 0.00 0.00 0.00 96 1020.1
20260831105250 59 106 0.0 2.0 0.00 0.00 0.00 96 1020.2
20260831104749 59 87 0.0 2.0 0.00 0.00 0.00 96 1020.0
20260831104246 59 60 0.0 2.0 0.00 0.00 0.00 96 1020.2
20260831103746 59 256 0.0 2.0 0.00 0.00 0.00 96 1020.1
20260831103242 59 29 0.0 2.0 0.00 0.00 0.00 96 1020.0
20260831102742 59 134 0.0 2.0 0.00 0.00 0.00 96 1019.9
20260831102236 59 124 0.0 2.0 0.00 0.00 0.00 96 1019.9
20260831101732 58 224 0.0 1.0 0.00 0.00 0.00 96 1020.1
20260831101228 58 124 0.0 1.0 0.00 0.00 0.00 96 1020.1
20260831100724 58 111 0.0 1.0 0.00 0.00 0.00 96 1020.2
20260831100219 58 82 0.0 2.0 0.00 0.00 0.00 96 1020.2
20260831095718 58 30 0.0 2.0 0.00 0.00 0.00 96 1020.1
20260831095213 58 37 0.0 1.0 0.00 0.00 0.00 96 1020.3
20260831094708 59 37 0.0 2.0 0.00 0.00 0.00 96 1020.2
20260831094204 58 122 1.0 2.0 0.00 0.00 0.00 96 1020.3
20260831093700 58 129 0.0 1.0 0.00 0.00 0.00 96 1020.2
20260831093155 58 116 0.0 2.0 0.00 0.00 0.00 96 1020.2
20260831092651 58 143 2.0 2.0 0.00 0.00 0.00 96 1020.1
20260831092147 58 112 1.0 2.0 0.00 0.00 0.00 96 1020.1
20260831091646 58 142 1.0 3.0 0.00 0.00 0.00 96 1020.3
20260831091142 57 115 2.0 2.0 0.00 0.00 0.00 96 1020.2
20260831090637 57 106 1.0 2.0 0.00 0.00 0.00 96 1020.3
20260831090133 57 30 1.0 2.0 0.00 0.00 0.00 96 1020.1
20260831085628 57 37 0.0 1.0 0.00 0.00 0.00 96 1020.1
20260831085124 58 50 0.0 1.0 0.00 0.00 0.00 96 1020.0
20260831084619 58 243 0.0 2.0 0.00 0.00 0.00 96 1019.9
20260831084115 59 66 2.0 2.0 0.00 0.00 0.00 96 1019.6
20260831083611 58 126 1.0 2.0 0.00 0.00 0.00 96 1019.8
20260831083106 57 92 2.0 2.0 0.00 0.00 0.00 96 1020.2
20260831082604 57 119 1.0 2.0 0.00 0.00 0.00 96 1020.0
20260831082100 57 121 0.0 2.0 0.00 0.00 0.00 96 1020.2
20260831081555 57 6 1.0 2.0 0.00 0.00 0.00 96 1019.8
20260831081051 57 129 0.0 0.0 0.00 0.00 0.00 96 1020.0
20260831080546 57 32 0.0 1.0 0.00 0.00 0.00 96 1019.8
20260831080041 58 50 0.0 1.0 0.00 0.00 0.00 96 1019.6
20260831075536 57 115 1.0 2.0 0.00 0.00 0.00 96 1020.1
20260831075032 58 89 0.0 0.0 0.00 0.00 0.00 96 1020.0
20260831074531 58 89 0.0 1.0 0.00 0.00 0.00 96 1020.1
20260831074031 58 89 0.0 0.0 0.00 0.00 0.00 96 1020.3
20260831073526 58 113 0.0 0.0 0.00 0.00 0.00 96 1020.0
20260831073026 58 113 0.0 1.0 0.00 0.00 0.00 96 1019.9
20260831072521 58 111 1.0 1.0 0.00 0.00 0.00 96 1020.1
20260831072018 58 37 0.0 1.0 0.00 0.00 0.00 96 1019.9
20260831071516 58 66 0.0 1.0 0.00 0.00 0.00 96 1020.0
20260831071012 58 142 0.0 1.0 0.00 0.00 0.00 96 1020.0
20260831070510 59 98 0.0 1.0 0.00 0.00 0.00 96 1020.1
20260831070005 59 103 0.0 1.0 0.00 0.00 0.00 96 1019.9
20260831065503 59 32 0.0 2.0 0.00 0.00 0.00 96 1020.3
20260831064957 59 142 0.0 1.0 0.00 0.00 0.00 96 1020.0
20260831064453 59 50 0.0 2.0 0.00 0.00 0.00 96 1020.1